Location: ????????
(60.5616°N, 46.8254°E)
Time: 09:46:33
(UTC+00:00)

Cosmos 2285 Rocket - Pass Details

Date: 18 February 2020
Orbit: 970 x 999 km, 74.0° (Epoch: 03 April)

Event Time Altitude Azimuth Distance (km) Brightness Sun altitude
Rises 15:50:51 0° 326° (NW) 3,688 7.6 -15.6°
Reaches altitude 10° 15:53:24 10° 326° (NNW) 2,741 6.9 -15.9°
Maximum altitude 15:59:46 88° 241° (WSW) 993 4.0 -16.7°
Drops below altitude 10° 16:06:10 10° 151° (SSE) 2,747 6.0 -17.4°
Enters shadow 16:06:37 - 151° (SSE) 2,916 6.1 -17.5°
